User: anonymous   Login
Location: Vancouver
(49.2500°N, 123.1330°W)
Time: 17:09:11
(UTC-07:00)
Language:

H-2A R/B - Orbit

View from above orbital plane
View from above orbital plane
View from above satellite
View from above satellite

Ground track
Ground track

The orbit data is extracted from the following two-line orbital elements,

1 27601U 02056E   17176.23093707 +.00000036 +00000-0 +28622-4 0  9995
2 27601 098.3758 243.7496 0070895 271.6361 154.8780 14.31784682758960
Epoch (UTC): 25 June 2017 05:32:32
Eccentricity: 0.0070895
inclination: 98.3758°
perigee height: 735 km
apogee height: 836 km
right ascension of ascending node: 243.7496°
argument of perigee: 271.6361°
revolutions per day: 14.31784682
mean anomaly at epoch: 154.8780°
orbit number at epoch: 75896

The dashed part of the orbit path shows where the satellite is in the earth's shadow,  

DLR